EW2310 Weather Reports


Display with metric or nautical units.
time (UTC)temp
F
wind
direction
speed
MPH
gust
MPH
rain 1hr
in
rain 24hr
in
rain mn
in
humidity
%
barometer
mb
20260508035544 63 94 0.0 2.0 0.00 0.00 0.00 74 1007.3
20260508035044 63 94 2.0 4.0 0.00 0.00 0.00 74 1007.3
20260508034545 63 5 3.0 3.0 0.00 0.00 0.00 74 1007.2
20260508034047 63 5 0.0 1.0 0.00 0.00 0.00 74 1007.3
20260508033547 63 5 0.0 0.0 0.00 0.00 0.00 74 1007.2
20260508033044 63 5 0.0 1.0 0.00 0.00 0.00 74 1007.2
20260508032544 63 5 0.0 1.0 0.00 0.00 0.00 74 1007.2
20260508032044 62 5 0.0 3.0 0.00 0.00 0.00 74 1007.2
20260508031544 62 0 1.0 3.0 0.00 0.00 0.00 74 1007.2
20260508031047 62 305 2.0 2.0 0.00 0.00 0.00 74 1007.2
20260508030544 62 305 0.0 2.0 0.00 0.00 0.00 74 1007.2
20260508030044 62 305 1.0 3.0 0.00 0.00 0.00 74 1007.2
20260508025544 62 311 1.0 5.0 0.00 0.00 0.00 74 1007.1
20260508025047 62 318 0.0 6.0 0.00 0.00 0.00 74 1007.1
20260508024545 62 324 1.0 6.0 0.00 0.00 0.00 74 1007.1
20260508024044 62 315 4.0 7.0 0.00 0.00 0.00 74 1007.1
20260508023544 62 334 4.0 6.0 0.00 0.00 0.00 74 1007.2
20260508023044 62 339 2.0 9.0 0.00 0.00 0.00 74 1007.1
20260508022544 62 324 4.0 8.0 0.00 0.00 0.00 74 1007.1
20260508022045 62 331 6.0 6.0 0.00 0.00 0.00 74 1007.2
20260508021548 62 333 8.0 8.0 0.00 0.00 0.00 75 1007.1
20260508021045 62 324 3.0 8.0 0.00 0.00 0.00 75 1007.0
20260508020544 62 306 2.0 8.0 0.00 0.00 0.00 75 1007.1
20260508020044 62 346 5.0 8.0 0.00 0.00 0.00 74 1007.2
20260508015547 62 346 6.0 9.0 0.00 0.00 0.00 74 1007.2
20260508015044 62 328 4.0 11.0 0.00 0.00 0.00 74 1007.2
20260508014545 62 18 4.0 11.0 0.00 0.00 0.00 74 1007.2
20260508014044 62 355 6.0 10.0 0.00 0.00 0.00 74 1007.3
20260508013544 62 324 4.0 9.0 0.00 0.00 0.00 75 1007.3
20260508013045 62 299 8.0 10.0 0.00 0.00 0.00 75 1007.2
20260508012544 62 338 9.0 11.0 0.00 0.00 0.00 75 1007.3
20260508012044 63 332 5.0 10.0 0.00 0.00 0.00 75 1007.2
20260508011544 63 344 8.0 11.0 0.00 0.00 0.00 75 1007.3
20260508011044 63 307 5.0 10.0 0.00 0.00 0.00 75 1007.3
20260508010544 63 0 6.0 9.0 0.00 0.00 0.00 75 1007.3
20260508010047 63 312 9.0 9.0 0.00 0.00 0.00 75 1007.3
20260508005544 63 0 8.0 11.0 0.00 0.00 0.00 75 1007.4
20260508005044 63 343 9.0 12.0 0.00 0.00 0.00 75 1007.4
20260508004544 63 340 6.0 10.0 0.00 0.00 0.00 75 1007.5
20260508004044 63 323 8.0 11.0 0.00 0.00 0.00 75 1007.5
20260508003544 63 336 6.0 11.0 0.00 0.00 0.00 76 1007.5
20260508003044 63 331 9.0 12.0 0.00 0.00 0.00 75 1007.5
20260508002544 63 331 6.0 11.0 0.00 0.00 0.00 75 1007.6
20260508002044 63 311 9.0 12.0 0.00 0.00 0.00 75 1007.6
20260508001544 63 336 8.0 11.0 0.00 0.00 0.00 75 1007.7
20260508001044 63 318 8.0 11.0 0.00 0.00 0.00 75 1007.8
20260508000544 63 319 4.0 11.0 0.00 0.00 0.00 76 1007.8
20260508000044 63 317 4.0 10.0 0.00 0.00 0.00 77 1007.9
20260507235544 63 315 3.0 11.0 0.00 0.00 0.00 77 1007.9
20260507235044 63 10 8.0 9.0 0.00 0.00 0.00 77 1008.0
20260507234544 64 320 2.0 11.0 0.00 0.00 0.00 76 1008.1
20260507234047 64 326 5.0 11.0 0.00 0.00 0.00 76 1008.1
20260507233547 64 321 8.0 11.0 0.00 0.00 0.00 77 1008.1
20260507233044 64 327 3.0 10.0 0.00 0.00 0.00 78 1008.3
20260507232544 64 337 6.0 12.0 0.00 0.00 0.00 78 1008.2
20260507232044 64 337 5.0 11.0 0.00 0.00 0.00 78 1008.2
20260507231544 64 313 2.0 11.0 0.00 0.01 0.00 79 1008.3
20260507231044 64 313 3.0 11.0 0.00 0.01 0.00 79 1008.4
20260507230544 64 329 5.0 10.0 0.00 0.01 0.00 79 1008.5
20260507230044 64 322 5.0 10.0 0.00 0.02 0.00 80 1008.6
20260507225544 64 11 7.0 11.0 0.00 0.02 0.00 80 1008.6
20260507225044 64 315 9.0 11.0 0.00 0.03 0.00 80 1008.6
20260507224544 63 329 6.0 11.0 0.00 0.03 0.00 81 1008.7
20260507224044 63 323 6.0 10.0 0.00 0.03 0.00 81 1008.8
20260507223544 63 324 8.0 10.0 0.00 0.03 0.00 81 1008.8
20260507223044 63 337 4.0 10.0 0.00 0.04 0.00 81 1008.8
20260507222544 64 331 3.0 11.0 0.00 0.04 0.00 81 1008.9
20260507222044 64 0 4.0 9.0 0.00 0.04 0.00 80 1008.8
20260507221544 64 312 4.0 9.0 0.00 0.04 0.00 80 1008.8
20260507221044 64 328 4.0 8.0 0.00 0.04 0.00 79 1008.9
20260507220544 64 303 5.0 11.0 0.00 0.04 0.00 79 1008.8
20260507220044 65 326 5.0 10.0 0.00 0.04 0.00 78 1008.8
20260507215544 65 332 6.0 11.0 0.00 0.04 0.00 78 1008.9
20260507215044 65 355 5.0 10.0 0.00 0.04 0.00 77 1009.0
20260507214544 65 328 6.0 10.0 0.00 0.04 0.00 77 1009.0
20260507214047 65 296 2.0 9.0 0.00 0.04 0.00 77 1009.1
20260507213544 65 317 4.0 9.0 0.00 0.04 0.00 77 1009.2
20260507213044 65 331 3.0 8.0 0.00 0.04 0.00 77 1009.2
20260507212544 65 321 3.0 8.0 0.00 0.04 0.00 77 1009.3
20260507212044 65 348 4.0 9.0 0.00 0.04 0.00 77 1009.3
20260507211547 65 326 4.0 8.0 0.00 0.04 0.00 78 1009.4
20260507211047 65 300 4.0 7.0 0.00 0.04 0.00 78 1009.4
20260507210544 65 306 5.0 5.0 0.00 0.04 0.00 77 1009.4
20260507210047 65 329 4.0 7.0 0.00 0.04 0.00 77 1009.5
20260507205544 65 336 5.0 8.0 0.00 0.04 0.00 78 1009.5
20260507205044 65 314 3.0 5.0 0.00 0.04 0.00 78 1009.5
20260507204544 65 313 5.0 7.0 0.00 0.04 0.00 78 1009.5
20260507204044 65 306 2.0 9.0 0.00 0.04 0.00 78 1009.4
20260507203545 65 304 4.0 9.0 0.00 0.04 0.00 78 1009.4
20260507203044 65 322 1.0 6.0 0.00 0.04 0.00 78 1009.5
20260507202544 65 309 5.0 7.0 0.00 0.04 0.00 78 1009.4
20260507202044 65 334 4.0 8.0 0.00 0.04 0.00 79 1009.5
20260507201545 64 316 3.0 7.0 0.00 0.04 0.00 79 1009.5
20260507201044 64 337 5.0 6.0 0.00 0.04 0.00 79 1009.6
20260507200547 64 317 3.0 8.0 0.00 0.04 0.00 79 1009.6
20260507200044 64 311 4.0 6.0 0.00 0.04 0.00 80 1009.6
20260507195544 64 280 0.0 8.0 0.00 0.04 0.00 79 1009.7
20260507195044 64 334 4.0 9.0 0.00 0.05 0.00 79 1009.7
20260507194544 64 344 0.0 6.0 0.00 0.05 0.00 79 1009.7
20260507194044 65 317 3.0 8.0 0.00 0.05 0.00 79 1009.6
20260507193544 65 309 3.0 10.0 0.00 0.05 0.00 79 1009.6
20260507193044 64 316 4.0 9.0 0.00 0.05 0.00 79 1009.6
20260507192544 65 326 3.0 8.0 0.00 0.05 0.00 79 1009.7
20260507192044 65 329 5.0 8.0 0.00 0.05 0.00 79 1009.6
20260507191544 65 328 4.0 10.0 0.00 0.05 0.00 78 1009.6
20260507191044 65 355 8.0 11.0 0.00 0.05 0.00 78 1009.5
20260507190544 65 277 7.0 12.0 0.00 0.05 0.00 78 1009.6
20260507190048 65 325 3.0 8.0 0.00 0.05 0.00 77 1009.6
20260507185545 65 331 4.0 8.0 0.00 0.05 0.00 77 1009.6
20260507185044 66 330 2.0 8.0 0.00 0.05 0.00 76 1009.5
20260507184545 66 324 1.0 6.0 0.00 0.05 0.00 75 1009.6
20260507184044 66 274 3.0 11.0 0.00 0.05 0.00 75 1009.7
20260507183544 66 309 5.0 8.0 0.00 0.05 0.00 75 1009.7
20260507183044 66 317 4.0 9.0 0.00 0.05 0.00 75 1009.6
20260507182544 67 274 2.0 5.0 0.00 0.05 0.00 74 1009.6
20260507182044 67 337 1.0 6.0 0.00 0.05 0.00 74 1009.7
20260507181545 67 309 1.0 7.0 0.00 0.05 0.00 74 1009.7
20260507181045 67 321 5.0 10.0 0.00 0.05 0.00 73 1009.6
20260507180544 67 317 10.0 9.0 0.00 0.05 0.00 73 1009.6
20260507180044 67 325 4.0 9.0 0.00 0.05 0.00 72 1009.7
20260507175544 68 304 3.0 11.0 0.00 0.05 0.00 72 1009.6
20260507175044 68 316 6.0 12.0 0.00 0.05 0.00 71 1009.6
20260507174544 68 312 3.0 9.0 0.00 0.05 0.00 71 1009.7
20260507174044 69 276 3.0 4.0 0.00 0.05 0.00 70 1009.7
20260507173544 69 314 1.0 4.0 0.00 0.05 0.00 70 1009.7
20260507173044 69 294 0.0 5.0 0.00 0.05 0.00 71 1009.7
20260507172544 69 259 0.0 5.0 0.00 0.05 0.00 70 1009.8
20260507172044 69 355 0.0 5.0 0.00 0.05 0.00 70 1009.7
20260507171544 69 255 1.0 6.0 0.00 0.05 0.00 69 1009.6
20260507171044 70 275 0.0 4.0 0.00 0.05 0.00 69 1009.7
20260507170544 70 322 1.0 6.0 0.00 0.05 0.00 68 1009.8
20260507170044 70 215 2.0 7.0 0.00 0.05 0.00 68 1009.8
20260507165544 70 278 0.0 6.0 0.00 0.05 0.00 68 1009.8
20260507165044 70 320 0.0 4.0 0.00 0.05 0.00 68 1009.8
20260507164544 71 320 3.0 3.0 0.00 0.05 0.00 67 1009.8
20260507164047 71 240 0.0 6.0 0.00 0.05 0.00 68 1009.8
20260507163547 71 291 1.0 3.0 0.00 0.05 0.00 69 1009.8
20260507163044 71 273 1.0 5.0 0.00 0.05 0.00 68 1009.7
20260507162544 71 266 0.0 4.0 0.00 0.05 0.00 69 1009.6
20260507162044 71 248 1.0 4.0 0.00 0.05 0.00 69 1009.6
20260507161544 71 310 3.0 4.0 0.00 0.05 0.00 69 1009.7
20260507161044 71 323 0.0 6.0 0.00 0.05 0.00 68 1009.7
20260507160544 72 5 1.0 5.0 0.00 0.05 0.00 69 1009.7
20260507160044 72 221 3.0 5.0 0.00 0.05 0.00 69 1009.6
20260507155544 72 113 2.0 6.0 0.00 0.05 0.00 68 1009.6
20260507155044 72 205 3.0 5.0 0.00 0.05 0.00 69 1009.6
20260507154544 72 306 1.0 3.0 0.00 0.05 0.00 70 1009.6
20260507154044 71 336 1.0 8.0 0.00 0.05 0.00 70 1009.5
20260507153544 71 305 7.0 8.0 0.00 0.05 0.00 72 1009.6
20260507153044 71 237 0.0 5.0 0.00 0.05 0.00 72 1009.6
20260507152544 70 244 1.0 4.0 0.00 0.05 0.00 72 1009.6
20260507152044 70 222 2.0 5.0 0.00 0.05 0.00 73 1009.6
20260507151547 70 12 1.0 6.0 0.00 0.05 0.00 73 1009.6
20260507151044 70 308 0.0 3.0 0.00 0.05 0.00 73 1009.7
20260507150544 70 223 1.0 5.0 0.00 0.05 0.00 72 1009.8
20260507150044 71 288 2.0 7.0 0.00 0.05 0.00 72 1009.9
20260507145544 71 149 1.0 9.0 0.00 0.05 0.00 71 1009.9
20260507145044 71 188 4.0 7.0 0.00 0.05 0.00 71 1009.8
20260507144544 71 188 1.0 7.0 0.00 0.05 0.00 70 1009.9
20260507144047 72 150 3.0 10.0 0.00 0.05 0.00 69 1009.9
20260507143544 72 195 7.0 6.0 0.00 0.05 0.00 69 1009.9
20260507143047 72 335 1.0 5.0 0.00 0.05 0.00 69 1009.9
20260507142544 72 42 1.0 6.0 0.00 0.05 0.00 69 1009.9
20260507142044 72 24 1.0 4.0 0.00 0.05 0.00 69 1009.9
20260507141544 72 34 1.0 3.0 0.00 0.05 0.00 69 1009.9
20260507141044 71 246 3.0 5.0 0.00 0.05 0.00 69 1010.0
20260507140544 71 141 1.0 6.0 0.00 0.05 0.00 69 1010.2
20260507140044 71 186 0.0 6.0 0.00 0.05 0.00 69 1010.4
20260507135547 71 269 4.0 4.0 0.00 0.05 0.00 70 1010.4
20260507135044 71 95 2.0 5.0 0.00 0.05 0.00 71 1010.5
20260507134544 70 289 1.0 6.0 0.00 0.05 0.00 71 1010.6
20260507134044 70 168 1.0 4.0 0.00 0.05 0.00 71 1010.8
20260507133544 70 126 2.0 8.0 0.00 0.05 0.00 72 1010.9
20260507133047 69 179 3.0 4.0 0.00 0.05 0.00 71 1010.9
20260507132547 69 62 2.0 6.0 0.00 0.05 0.00 71 1011.0
20260507132044 69 350 0.0 6.0 0.00 0.05 0.00 71 1011.1
20260507131544 69 184 1.0 8.0 0.00 0.05 0.00 71 1011.0
20260507131044 70 355 1.0 10.0 0.00 0.05 0.00 70 1011.1
20260507130544 70 173 5.0 7.0 0.00 0.05 0.00 70 1011.2
20260507130044 70 180 1.0 6.0 0.00 0.05 0.00 70 1011.2
20260507125544 70 36 1.0 6.0 0.00 0.05 0.00 70 1011.3
20260507125044 70 302 1.0 12.0 0.00 0.05 0.00 70 1011.3
20260507124544 70 181 2.0 12.0 0.00 0.05 0.00 70 1011.3
20260507124044 71 184 5.0 10.0 0.00 0.05 0.00 69 1011.3
20260507123544 71 265 2.0 11.0 0.00 0.05 0.00 69 1011.2
20260507123044 71 215 0.0 8.0 0.00 0.05 0.00 68 1011.3
20260507122544 71 244 4.0 8.0 0.00 0.05 0.00 68 1011.2
20260507122044 71 196 8.0 11.0 0.00 0.05 0.00 68 1011.3
20260507121544 72 340 2.0 10.0 0.00 0.05 0.00 66 1011.3
20260507121044 73 260 1.0 12.0 0.00 0.05 0.00 65 1011.3
20260507120544 74 175 4.0 13.0 0.00 0.05 0.00 63 1011.2
20260507120044 74 220 3.0 8.0 0.00 0.05 0.00 58 1011.3
20260507115547 74 42 2.0 4.0 0.00 0.05 0.00 54 1011.3
20260507115044 74 30 0.0 2.0 0.00 0.05 0.00 56 1011.2
20260507114544 74 29 1.0 4.0 0.00 0.05 0.00 56 1011.2
20260507114044 73 344 2.0 5.0 0.00 0.05 0.00 57 1011.2
20260507113544 73 69 5.0 5.0 0.00 0.05 0.00 57 1011.3
20260507113044 72 321 4.0 4.0 0.00 0.05 0.00 56 1011.3
20260507112544 72 59 1.0 6.0 0.00 0.05 0.00 56 1011.3
20260507112044 72 29 2.0 6.0 0.00 0.05 0.00 57 1011.3
20260507111544 72 67 3.0 9.0 0.00 0.05 0.00 59 1011.5
20260507111044 72 290 1.0 8.0 0.00 0.05 0.00 61 1011.5
20260507110544 71 71 0.0 6.0 0.00 0.05 0.00 60 1011.6
20260507110047 71 355 4.0 9.0 0.00 0.05 0.00 60 1011.6
20260507105544 71 46 4.0 8.0 0.00 0.05 0.00 61 1011.6
20260507105044 71 350 2.0 5.0 0.00 0.05 0.00 62 1011.7
20260507104544 71 341 4.0 10.0 0.00 0.05 0.00 61 1011.8
20260507104044 71 355 2.0 4.0 0.00 0.05 0.00 62 1011.8
20260507103544 71 330 1.0 6.0 0.00 0.05 0.00 62 1011.9
20260507103044 71 327 4.0 11.0 0.00 0.05 0.00 63 1011.9
20260507102544 71 281 1.0 4.0 0.00 0.05 0.00 64 1011.9
20260507102044 70 301 0.0 9.0 0.00 0.05 0.00 64 1012.0
20260507101544 70 317 8.0 8.0 0.00 0.05 0.00 64 1012.1
20260507101044 70 312 4.0 9.0 0.00 0.05 0.00 63 1012.1
20260507100544 70 315 4.0 9.0 0.00 0.05 0.00 64 1012.2
20260507100044 70 323 3.0 8.0 0.00 0.05 0.00 65 1012.0
20260507095547 70 112 3.0 5.0 0.00 0.05 0.00 64 1012.0
20260507095047 70 319 6.0 11.0 0.00 0.05 0.00 63 1012.0
20260507094544 70 314 3.0 5.0 0.00 0.05 0.00 64 1012.2
20260507094044 69 322 1.0 6.0 0.00 0.05 0.00 65 1012.2
20260507093547 70 22 2.0 8.0 0.00 0.05 0.00 64 1012.2
20260507093044 70 80 8.0 8.0 0.00 0.05 0.00 63 1012.2
20260507092547 70 38 3.0 3.0 0.00 0.05 0.00 66 1012.2
20260507092048 69 40 0.0 4.0 0.00 0.05 0.00 67 1012.3
20260507091544 68 111 2.0 4.0 0.00 0.05 0.00 67 1012.2
20260507091044 68 344 2.0 5.0 0.00 0.05 0.00 67 1012.2
20260507090544 68 349 2.0 5.0 0.00 0.05 0.00 68 1012.2
20260507090044 68 321 0.0 6.0 0.00 0.05 0.00 68 1012.1
20260507085544 67 39 1.0 4.0 0.00 0.05 0.00 69 1012.1
20260507085044 67 37 4.0 9.0 0.00 0.05 0.00 68 1012.0
20260507084544 67 311 4.0 9.0 0.00 0.05 0.00 69 1012.0
20260507084044 67 320 5.0 6.0 0.00 0.05 0.00 69 1012.1
20260507083544 68 329 5.0 6.0 0.00 0.05 0.00 68 1012.2
20260507083044 68 309 1.0 3.0 0.00 0.05 0.00 69 1012.3
20260507082544 68 308 1.0 5.0 0.00 0.05 0.00 69 1012.2
20260507082044 67 304 0.0 6.0 0.00 0.05 0.00 70 1012.1
20260507081544 67 355 1.0 6.0 0.00 0.05 0.00 68 1012.2
20260507081047 68 271 3.0 3.0 0.00 0.05 0.00 70 1012.2
20260507080547 67 190 2.0 3.0 0.00 0.05 0.00 71 1012.1
20260507080044 67 194 1.0 6.0 0.00 0.05 0.00 71 1012.2
20260507075544 66 153 2.0 5.0 0.00 0.05 0.00 71 1012.2
20260507075044 66 152 3.0 4.0 0.00 0.05 0.00 71 1012.2
20260507074544 66 146 1.0 7.0 0.00 0.05 0.00 70 1012.2
20260507074044 66 212 0.0 2.0 0.00 0.05 0.00 72 1012.2
20260507073544 66 213 0.0 4.0 0.00 0.05 0.00 71 1012.3
20260507073044 66 188 2.0 3.0 0.00 0.05 0.00 72 1012.3
20260507072547 66 189 1.0 3.0 0.00 0.05 0.00 72 1012.4
20260507072044 65 190 0.0 8.0 0.00 0.05 0.00 73 1012.4
20260507071547 65 171 1.0 7.0 0.00 0.05 0.00 72 1012.5
20260507071044 65 163 0.0 2.0 0.00 0.05 0.00 75 1012.5
20260507070544 65 163 1.0 5.0 0.00 0.05 0.00 75 1012.6
20260507070044 65 162 0.0 6.0 0.00 0.05 0.00 76 1012.6
20260507065544 64 138 1.0 7.0 0.00 0.05 0.00 77 1012.6
20260507065044 64 174 2.0 3.0 0.00 0.05 0.00 78 1012.7
20260507064547 64 174 2.0 8.0 0.00 0.05 0.00 77 1012.7
20260507064048 64 152 0.0 6.0 0.00 0.05 0.00 79 1012.6
20260507063544 63 158 2.0 7.0 0.00 0.05 0.00 78 1012.4
20260507063044 63 150 0.0 5.0 0.00 0.05 0.00 79 1012.3
20260507062544 63 162 4.0 6.0 0.00 0.05 0.00 80 1012.3
20260507062044 63 150 3.0 8.0 0.00 0.05 0.00 80 1012.2
20260507061544 62 136 0.0 4.0 0.00 0.05 0.00 81 1012.2
20260507061044 62 140 2.0 5.0 0.00 0.05 0.00 81 1012.1
20260507060544 61 128 2.0 4.0 0.00 0.05 0.00 82 1012.1
20260507060047 61 117 4.0 4.0 0.00 0.05 0.00 82 1012.1
20260507055544 61 140 2.0 3.0 0.00 0.04 0.00 83 1012.2
20260507055047 60 140 0.0 4.0 0.00 0.04 0.00 83 1012.1
20260507054544 60 141 1.0 5.0 0.00 0.04 0.00 82 1012.0
20260507054044 60 116 1.0 3.0 0.00 0.04 0.00 82 1012.0
20260507053544 60 115 1.0 4.0 0.00 0.04 0.00 82 1012.1
20260507053044 60 78 3.0 4.0 0.00 0.04 0.00 83 1012.1
20260507052544 60 78 0.0 3.0 0.00 0.04 0.00 84 1012.0
20260507052047 60 78 2.0 4.0 0.00 0.04 0.00 84 1012.0
20260507051544 60 77 2.0 5.0 0.00 0.04 0.00 84 1012.0
20260507051044 59 75 1.0 3.0 0.00 0.04 0.00 84 1012.0
20260507050544 59 75 3.0 4.0 0.00 0.04 0.00 84 1012.0
20260507050047 59 75 3.0 3.0 0.00 0.04 0.00 85 1012.0
20260507045544 59 74 2.0 4.0 0.00 0.04 0.00 85 1011.9
20260507045044 58 74 1.0 2.0 0.00 0.04 0.00 85 1011.9
20260507044544 58 74 2.0 3.0 0.00 0.05 0.00 85 1011.9
20260507044044 58 74 1.0 2.0 0.00 0.05 0.00 85 1011.9
20260507043544 58 74 1.0 3.0 0.00 0.05 0.00 85 1011.9
20260507043044 58 74 1.0 3.0 0.00 0.05 0.00 85 1011.8
20260507042547 58 74 2.0 3.0 0.00 0.05 0.00 85 1011.8
20260507042047 58 74 1.0 3.0 0.00 0.05 0.00 85 1011.8
20260507041544 58 74 3.0 5.0 0.00 0.05 0.00 85 1011.8
20260507041044 58 67 4.0 5.0 0.00 0.05 0.00 85 1011.7
20260507040544 58 65 2.0 3.0 0.00 0.05 0.00 85 1011.7
20260507040044 58 65 3.0 4.0 0.00 0.05 0.00 85 1011.7